Temp
-14 -14 -14 -14 -14 -15 -15 -15 -15 -15 -15 -15 -15 -15 -15 -16 -16 -16 -16 -16 -15 -16 -16 -16 -16 -16 -16 -16 -16 -16 -16 -16 -15 -15 -15 -15 -14 -14 -13 -13 -13 -12 -11 -10 -9 -8 -8 -8 -8 -7 -6 -5 -4 -3 -2 -1 -1 -0 0 1 1 2 4 4 5 6 6 7 7 7 7 7 8 8
-14 -14 -14 -15 -15 -15 -15 -15 -15 -15 -15 -15 -15 -15 -16 -16 -16 -16 -16 -16 -16 -16 -16 -16 -16 -16 -16 -16 -16 -16 -16 -16 -16 -15 -15 -15 -15 -14 -14 -13 -13 -12 -12 -10 -9 -8 -8 -7 -8 -7 -6 -5 -5 -3 -2 -2 -1 -1 -0 1 1 1 2 3 4 5 6 6 6 6 6 6 7 8
-15 -15 -15 -15 -15 -15 -15 -15 -15 -15 -15 -16 -16 -16 -16 -16 -16 -16 -16 -16 -16 -17 -17 -17 -17 -17 -17 -16 -16 -16 -16 -16 -16 -15 -15 -15 -15 -14 -14 -14 -13 -13 -12 -11 -9 -8 -8 -7 -8 -8 -7 -6 -5 -4 -3 -2 -2 -1 -0 0 0 1 1 3 4 4 5 6 6 6 6 6 6 8
-15 -15 -15 -15 -15 -15 -15 -15 -15 -15 -16 -16 -16 -16 -16 -17 -17 -17 -17 -17 -17 -17 -17 -17 -17 -17 -17 -16 -16 -16 -16 -16 -15 -15 -15 -15 -15 -14 -14 -14 -13 -13 -13 -12 -10 -9 -8 -7 -7 -8 -7 -6 -5 -5 -4 -3 -2 -2 -1 -0 0 1 1 2 3 3 4 5 6 6 5 6 6 7
-15 -15 -15 -15 -15 -15 -15 -15 -15 -16 -16 -16 -16 -16 -16 -17 -17 -17 -17 -17 -17 -17 -17 -17 -17 -16 -16 -16 -16 -16 -16 -15 -15 -15 -15 -15 -15 -15 -14 -14 -14 -13 -13 -12 -11 -9 -8 -7 -7 -7 -7 -7 -6 -5 -4 -3 -3 -2 -1 -1 -0 0 1 1 2 3 3 5 6 5 5 6 6 6
-15 -15 -15 -15 -15 -15 -15 -15 -15 -15 -15 -16 -16 -16 -17 -17 -17 -17 -17 -17 -17 -17 -17 -17 -16 -16 -16 -16 -16 -16 -16 -15 -15 -15 -15 -15 -15 -15 -15 -14 -14 -13 -13 -12 -11 -10 -8 -8 -7 -7 -8 -7 -6 -5 -4 -3 -3 -2 -2 -1 -0 -0 1 1 1 2 3 4 5 5 5 5 6 5
-15 -15 -15 -15 -15 -15 -15 -15 -15 -15 -15 -15 -16 -16 -16 -17 -18 -18 -18 -18 -17 -17 -17 -16 -16 -16 -16 -16 -16 -16 -16 -16 -16 -16 -15 -15 -15 -15 -15 -15 -14 -14 -13 -13 -12 -11 -9 -8 -7 -7 -8 -7 -7 -6 -5 -4 -3 -2 -2 -1 -1 -0 0 1 1 1 2 4 5 5 4 5 6 5
-15 -15 -15 -15 -15 -15 -15 -15 -15 -15 -15 -16 -16 -16 -16 -17 -18 -18 -18 -17 -17 -17 -17 -16 -16 -16 -16 -16 -16 -16 -16 -16 -16 -16 -16 -16 -15 -15 -15 -14 -14 -14 -14 -13 -12 -12 -11 -9 -7 -7 -7 -7 -7 -6 -5 -4 -3 -3 -2 -2 -1 -0 0 1 1 1 2 3 4 4 4 4 5 5
-15 -15 -15 -15 -15 -15 -15 -15 -15 -15 -16 -16 -15 -15 -16 -18 -18 -18 -17 -17 -17 -17 -16 -16 -16 -16 -16 -16 -16 -17 -17 -16 -16 -16 -16 -15 -15 -15 -15 -15 -14 -14 -14 -13 -13 -12 -11 -9 -8 -7 -7 -7 -7 -6 -5 -4 -3 -3 -2 -2 -1 -1 -0 1 1 1 2 3 3 4 4 4 5 6
-15 -15 -15 -15 -15 -15 -15 -15 -15 -16 -16 -16 -16 -16 -17 -18 -18 -17 -17 -17 -17 -16 -16 -16 -16 -16 -17 -17 -17 -17 -17 -17 -16 -16 -16 -15 -15 -15 -15 -15 -14 -14 -14 -13 -13 -12 -12 -10 -9 -8 -7 -7 -7 -6 -5 -5 -4 -3 -2 -2 -2 -1 -0 0 0 1 1 2 3 3 3 4 5 6
-15 -15 -15 -15 -15 -15 -15 -15 -16 -16 -16 -17 -17 -17 -18 -18 -17 -17 -17 -16 -16 -16 -16 -17 -17 -17 -18 -18 -17 -17 -17 -17 -16 -16 -16 -15 -15 -15 -15 -15 -15 -14 -14 -14 -13 -13 -12 -12 -10 -9 -7 -7 -7 -6 -5 -5 -4 -3 -2 -2 -2 -1 -0 -0 0 1 1 2 2 2 3 4 5 5
-15 -15 -15 -15 -15 -15 -15 -16 -16 -17 -17 -18 -18 -18 -18 -18 -17 -17 -17 -16 -16 -17 -17 -18 -18 -18 -18 -18 -18 -18 -17 -17 -17 -16 -16 -16 -16 -16 -16 -16 -15 -15 -15 -14 -13 -12 -11 -11 -10 -9 -7 -7 -6 -6 -6 -5 -4 -3 -3 -2 -2 -1 -1 -0 0 1 1 1 2 3 3 4 5 5
-15 -15 -15 -15 -15 -15 -16 -16 -16 -16 -16 -17 -18 -18 -18 -18 -17 -17 -17 -17 -17 -17 -18 -18 -18 -18 -18 -18 -18 -18 -18 -17 -17 -17 -17 -17 -17 -16 -16 -16 -16 -16 -15 -15 -14 -12 -11 -11 -10 -9 -8 -6 -6 -6 -6 -5 -4 -3 -3 -2 -1 -1 -1 -0 0 0 1 1 2 3 4 4 5 5
-15 -15 -16 -16 -16 -16 -16 -16 -15 -15 -15 -16 -17 -17 -17 -17 -17 -17 -17 -17 -17 -18 -18 -18 -18 -18 -18 -19 -19 -19 -18 -18 -18 -18 -18 -18 -17 -17 -17 -16 -16 -16 -16 -15 -15 -13 -12 -11 -10 -9 -8 -6 -6 -6 -5 -5 -4 -3 -2 -2 -2 -1 -1 -0 0 0 1 1 1 3 4 5 5 5
-15 -15 -15 -16 -16 -16 -16 -15 -15 -15 -15 -16 -16 -15 -15 -16 -16 -17 -17 -17 -18 -18 -19 -19 -19 -19 -19 -19 -19 -19 -19 -19 -19 -19 -19 -18 -18 -18 -18 -17 -16 -16 -16 -16 -15 -14 -13 -12 -11 -9 -8 -7 -6 -5 -5 -4 -3 -3 -3 -2 -2 -1 -1 -0 0 0 1 1 1 2 3 4 5 5
-16 -15 -15 -16 -16 -16 -16 -15 -15 -15 -15 -15 -15 -15 -14 -15 -15 -16 -16 -17 -18 -19 -19 -19 -19 -19 -20 -20 -20 -20 -20 -20 -20 -20 -19 -19 -19 -18 -18 -18 -17 -16 -16 -16 -16 -15 -13 -12 -12 -10 -8 -8 -7 -6 -4 -4 -3 -3 -3 -2 -2 -1 -1 0 0 0 1 1 1 2 3 4 4 5
-16 -16 -15 -16 -16 -16 -16 -15 -15 -16 -15 -15 -15 -14 -14 -15 -15 -15 -15 -15 -16 -18 -19 -19 -20 -20 -20 -20 -20 -20 -20 -20 -20 -20 -19 -19 -19 -19 -18 -18 -18 -17 -17 -17 -17 -16 -13 -11 -11 -11 -9 -8 -7 -6 -5 -4 -4 -3 -3 -2 -2 -1 -1 0 0 1 1 1 1 1 2 3 3 4
-16 -16 -16 -16 -16 -16 -15 -15 -16 -16 -15 -16 -17 -15 -14 -14 -14 -15 -15 -15 -15 -17 -19 -20 -19 -19 -20 -20 -20 -20 -20 -19 -19 -19 -19 -18 -18 -18 -18 -18 -18 -18 -17 -17 -17 -16 -13 -11 -11 -10 -9 -8 -7 -6 -6 -5 -5 -4 -3 -2 -2 -1 -0 0 0 1 1 1 1 1 2 2 3 4
-15 -15 -15 -16 -16 -16 -15 -16 -16 -16 -16 -17 -18 -16 -15 -14 -14 -15 -15 -15 -16 -17 -19 -19 -19 -20 -20 -20 -20 -19 -19 -19 -19 -19 -19 -18 -18 -18 -18 -18 -18 -18 -17 -17 -17 -17 -13 -11 -11 -10 -8 -8 -7 -6 -6 -5 -5 -4 -3 -2 -2 -1 -0 0 1 1 1 1 1 1 1 2 2 3
-15 -15 -15 -16 -16 -16 -16 -16 -16 -16 -17 -18 -18 -16 -15 -15 -15 -14 -14 -15 -15 -16 -17 -18 -18 -19 -19 -20 -20 -19 -19 -20 -19 -19 -19 -19 -19 -19 -18 -18 -18 -17 -17 -17 -17 -17 -13 -11 -10 -10 -8 -8 -7 -6 -5 -5 -4 -4 -3 -2 -2 -1 -0 0 1 1 1 1 1 1 1 1 2 2
-15 -15 -16 -16 -16 -16 -16 -16 -16 -17 -18 -18 -17 -16 -15 -15 -15 -14 -14 -14 -14 -15 -15 -16 -17 -17 -18 -18 -19 -19 -19 -20 -20 -20 -19 -19 -19 -19 -19 -19 -18 -17 -17 -16 -16 -16 -13 -9 -9 -9 -8 -7 -6 -6 -5 -4 -4 -4 -3 -2 -2 -1 -0 0 1 1 1 1 0 1 1 1 1 1
-15 -15 -16 -16 -16 -16 -16 -16 -16 -17 -18 -18 -17 -17 -16 -16 -16 -15 -14 -14 -14 -14 -14 -14 -15 -16 -17 -18 -18 -18 -19 -19 -20 -20 -19 -19 -19 -19 -19 -19 -18 -17 -15 -13 -13 -14 -11 -8 -8 -9 -7 -6 -6 -5 -4 -4 -3 -3 -3 -2 -2 -1 -0 0 1 1 1 1 0 0 0 1 1 1
-15 -15 -16 -16 -16 -16 -17 -16 -16 -17 -18 -18 -17 -17 -17 -16 -16 -16 -16 -15 -14 -14 -13 -13 -14 -14 -16 -16 -17 -17 -18 -19 -19 -19 -19 -19 -18 -18 -18 -18 -18 -17 -13 -11 -12 -12 -10 -8 -7 -7 -7 -6 -5 -4 -4 -3 -3 -2 -2 -2 -2 -1 0 1 1 1 1 1 1 0 0 0 0 0
-15 -15 -16 -16 -16 -16 -17 -16 -17 -17 -18 -18 -18 -17 -17 -17 -17 -17 -16 -15 -15 -14 -13 -13 -13 -14 -15 -15 -16 -17 -17 -18 -18 -18 -18 -18 -17 -17 -17 -17 -17 -16 -13 -11 -12 -12 -10 -9 -7 -6 -6 -5 -4 -4 -4 -3 -3 -3 -2 -2 -2 -1 -0 -0 0 1 1 1 1 0 0 0 0 0
-15 -15 -16 -16 -16 -16 -16 -16 -17 -17 -18 -18 -18 -17 -17 -18 -18 -17 -16 -15 -14 -14 -13 -13 -13 -13 -14 -14 -15 -15 -16 -16 -17 -17 -17 -17 -16 -16 -16 -15 -15 -15 -13 -12 -12 -11 -10 -8 -6 -5 -5 -4 -4 -4 -4 -3 -3 -3 -3 -2 -2 -1 -1 -1 -0 0 0 0 0 0 0 0 0 1
-15 -15 -15 -16 -16 -16 -16 -16 -17 -18 -18 -18 -18 -17 -18 -18 -17 -16 -16 -15 -14 -14 -14 -13 -13 -13 -13 -13 -13 -14 -14 -15 -16 -16 -16 -15 -15 -15 -15 -15 -15 -15 -13 -11 -11 -10 -8 -7 -5 -4 -4 -4 -3 -3 -3 -3 -3 -3 -3 -2 -1 -1 -1 -1 -0 -0 0 -0 -0 0 0 0 1 1
-15 -15 -15 -16 -16 -16 -16 -16 -17 -18 -18 -18 -18 -17 -17 -17 -16 -16 -15 -15 -14 -14 -14 -13 -13 -13 -13 -13 -13 -13 -14 -14 -15 -15 -14 -14 -14 -14 -14 -14 -14 -15 -13 -11 -9 -8 -7 -6 -4 -3 -3 -3 -3 -3 -3 -3 -3 -3 -3 -2 -1 -1 -1 -1 -1 -0 -0 -0 -0 0 0 0 0 1
-15 -15 -15 -15 -16 -16 -16 -17 -17 -18 -18 -18 -17 -17 -17 -17 -16 -16 -15 -15 -14 -14 -14 -13 -14 -14 -14 -14 -14 -14 -14 -14 -15 -14 -14 -14 -14 -14 -13 -13 -13 -13 -12 -10 -8 -7 -6 -6 -4 -3 -3 -3 -3 -2 -2 -2 -2 -2 -2 -2 -1 -1 -1 -1 -1 -1 -0 -0 -0 0 0 0 1 1
-15 -15 -15 -15 -15 -16 -16 -17 -17 -17 -17 -17 -17 -17 -17 -16 -16 -16 -15 -15 -15 -14 -14 -14 -14 -14 -15 -15 -15 -15 -14 -14 -13 -13 -13 -13 -13 -13 -12 -12 -12 -11 -11 -10 -8 -7 -6 -5 -4 -3 -3 -3 -3 -2 -2 -2 -2 -2 -2 -2 -2 -1 -1 -1 -1 -1 -1 -0 -0 0 0 1 1 1
-15 -15 -15 -15 -15 -16 -16 -17 -17 -17 -17 -17 -17 -17 -16 -16 -16 -16 -16 -15 -15 -15 -15 -15 -15 -15 -15 -15 -15 -14 -14 -13 -13 -12 -12 -12 -11 -11 -11 -11 -11 -11 -10 -9 -8 -6 -5 -5 -4 -3 -3 -3 -3 -2 -2 -2 -2 -2 -2 -2 -2 -2 -1 -1 -1 -0 -0 -0 0 0 0 1 1 1
-15 -15 -15 -15 -15 -16 -17 -17 -17 -17 -16 -16 -16 -16 -16 -16 -16 -16 -16 -16 -16 -15 -15 -15 -15 -15 -15 -15 -14 -14 -14 -13 -13 -13 -12 -11 -11 -11 -10 -10 -10 -10 -10 -9 -8 -6 -6 -5 -4 -4 -4 -3 -3 -3 -3 -2 -2 -2 -2 -2 -2 -2 -2 -1 -1 -1 -0 -0 -0 0 0 0 0 0
-15 -15 -15 -15 -16 -16 -17 -17 -16 -16 -16 -16 -16 -15 -15 -16 -16 -16 -16 -16 -16 -16 -16 -16 -15 -15 -14 -14 -14 -14 -14 -14 -13 -13 -13 -12 -12 -11 -10 -9 -9 -9 -9 -8 -7 -7 -6 -6 -5 -5 -4 -4 -4 -3 -3 -3 -2 -2 -2 -2 -2 -2 -2 -2 -1 -1 -1 -1 -1 -0 -0 0 0 0
-14 -15 -15 -15 -16 -16 -16 -16 -16 -15 -15 -15 -15 -15 -15 -15 -15 -15 -15 -15 -15 -15 -15 -15 -15 -15 -14 -14 -14 -14 -14 -14 -14 -14 -13 -12 -12 -11 -10 -10 -10 -10 -9 -9 -8 -7 -7 -7 -6 -6 -5 -4 -4 -4 -3 -3 -3 -3 -3 -3 -2 -3 -3 -2 -2 -2 -2 -1 -1 -1 -0 0 0 1
-14 -15 -14 -15 -15 -15 -15 -15 -15 -14 -14 -14 -14 -14 -14 -15 -15 -15 -15 -15 -15 -15 -15 -15 -15 -15 -15 -14 -14 -14 -14 -14 -14 -14 -13 -13 -12 -11 -11 -11 -11 -11 -10 -10 -9 -8 -8 -7 -7 -7 -6 -5 -5 -5 -4 -4 -4 -4 -3 -3 -3 -3 -2 -2 -2 -2 -2 -2 -2 -1 -1 -0 0 1
-14 -14 -14 -14 -15 -15 -15 -15 -14 -14 -14 -14 -14 -14 -14 -14 -14 -14 -14 -15 -15 -15 -15 -15 -15 -15 -15 -15 -15 -15 -14 -14 -14 -13 -13 -13 -13 -13 -12 -12 -12 -11 -11 -10 -10 -9 -8 -8 -7 -7 -7 -6 -6 -6 -6 -6 -5 -5 -4 -4 -4 -3 -3 -2 -2 -2 -2 -2 -2 -2 -2 -1 -1 0
-14 -14 -14 -14 -15 -15 -15 -14 -14 -14 -14 -14 -14 -14 -14 -14 -14 -14 -14 -15 -15 -14 -14 -15 -15 -15 -15 -15 -15 -15 -15 -14 -14 -14 -13 -13 -13 -13 -13 -13 -13 -13 -12 -11 -10 -9 -9 -8 -8 -7 -7 -8 -8 -8 -8 -8 -7 -6 -6 -5 -4 -4 -4 -3 -3 -3 -3 -3 -2 -2 -2 -2 -1 -1
-14 -14 -14 -14 -14 -15 -14 -14 -14 -14 -14 -14 -14 -14 -14 -14 -14 -15 -15 -15 -15 -14 -14 -15 -15 -14 -15 -15 -15 -15 -15 -15 -15 -14 -14 -14 -14 -13 -13 -13 -13 -13 -13 -12 -11 -10 -10 -9 -8 -8 -9 -9 -9 -10 -10 -9 -8 -7 -7 -6 -5 -5 -4 -4 -4 -3 -3 -3 -2 -2 -2 -2 -2 -1
-14 -14 -14 -14 -14 -14 -14 -14 -14 -14 -14 -14 -14 -14 -15 -15 -15 -15 -15 -15 -15 -14 -14 -14 -14 -14 -14 -14 -14 -14 -15 -15 -15 -15 -15 -15 -14 -14 -14 -14 -13 -14 -13 -13 -12 -11 -11 -10 -10 -9 -10 -10 -11 -11 -10 -9 -9 -8 -7 -7 -6 -6 -5 -4 -4 -4 -4 -3 -3 -3 -3 -2 -2 -2
-14 -14 -14 -14 -14 -14 -14 -14 -14 -14 -14 -15 -15 -15 -15 -15 -15 -15 -14 -14 -15 -15 -14 -14 -14 -14 -14 -14 -15 -15 -15 -15 -15 -15 -15 -15 -15 -15 -15 -14 -14 -14 -13 -13 -12 -12 -11 -11 -11 -11 -11 -11 -12 -12 -11 -10 -10 -9 -9 -8 -7 -6 -5 -5 -5 -4 -4 -4 -4 -3 -3 -3 -3 -2
-14 -14 -14 -14 -14 -14 -14 -14 -15 -15 -15 -15 -15 -15 -15 -15 -14 -14 -14 -15 -15 -15 -15 -15 -15 -15 -14 -14 -15 -15 -15 -15 -15 -15 -15 -15 -15 -15 -15 -15 -15 -14 -14 -13 -13 -13 -12 -12 -12 -12 -12 -12 -12 -11 -11 -10 -10 -10 -9 -9 -8 -7 -6 -6 -5 -5 -4 -4 -4 -4 -3 -3 -3 -3
-13 -14 -14 -14 -14 -14 -15 -15 -15 -15 -15 -15 -15 -15 -15 -15 -15 -14 -15 -15 -15 -15 -15 -15 -15 -15 -15 -15 -15 -15 -15 -15 -15 -15 -15 -15 -15 -15 -15 -15 -15 -15 -14 -14 -14 -14 -14 -14 -14 -13 -12 -12 -11 -10 -9 -9 -9 -9 -9 -9 -8 -7 -7 -7 -6 -6 -5 -5 -4 -4 -4 -4 -3 -3
-13 -14 -14 -14 -14 -14 -15 -15 -15 -15 -15 -15 -15 -15 -15 -15 -15 -15 -15 -15 -15 -15 -15 -15 -15 -15 -15 -15 -15 -15 -15 -15 -15 -15 -15 -15 -15 -15 -15 -15 -15 -15 -15 -15 -15 -15 -14 -14 -13 -13 -12 -11 -10 -10 -10 -10 -10 -10 -9 -8 -8 -7 -7 -7 -7 -7 -6 -5 -5 -4 -4 -4 -4 -4
-13 -13 -14 -14 -14 -14 -14 -15 -15 -15 -15 -15 -15 -15 -15 -15 -15 -15 -15 -15 -15 -15 -15 -15 -15 -15 -15 -15 -15 -15 -15 -15 -15 -15 -15 -15 -15 -15 -15 -15 -15 -15 -15 -15 -15 -15 -14 -13 -13 -13 -12 -11 -11 -11 -11 -12 -12 -11 -9 -8 -8 -7 -7 -7 -7 -7 -7 -6 -6 -5 -5 -5 -5 -4
-13 -13 -14 -14 -14 -14 -14 -15 -15 -15 -15 -15 -15 -15 -15 -15 -15 -15 -15 -15 -15 -15 -15 -15 -15 -15 -15 -15 -15 -16 -16 -16 -16 -16 -16 -15 -15 -15 -15 -15 -15 -15 -15 -15 -14 -14 -14 -14 -13 -13 -13 -12 -12 -12 -12 -12 -12 -12 -11 -9 -8 -7 -7 -7 -7 -6 -6 -6 -6 -6 -5 -5 -5 -5
-13 -13 -13 -14 -14 -14 -14 -14 -15 -15 -15 -15 -15 -15 -15 -15 -15 -15 -15 -15 -15 -15 -15 -15 -15 -15 -15 -15 -16 -16 -16 -16 -16 -16 -16 -16 -16 -15 -15 -15 -15 -15 -15 -15 -15 -14 -14 -14 -14 -13 -13 -13 -13 -13 -13 -13 -13 -12 -11 -10 -9 -8 -8 -7 -7 -7 -6 -6 -6 -6 -5 -5 -5 -4
Height
1383 1382 1381 1379 1378 1376 1374 1373 1371 1369 1367 1366 1364 1361 1360 1358 1351 1341 1329 1321 1324 1323 1320 1318 1314 1313 1313 1310 1307 1307 1304 1303 1302 1300 1298 1297 1295 1294 1294 1293 1293 1292 1292 1291 1290 1290 1290 1290 1291 1292 1293 1294 1296 1298 1300 1302 1304 1306 1309 1313 1316 1318 1321 1321 1322 1323 1325 1327 1329 1332 1334 1335 1337 1341
1381 1379 1378 1377 1375 1373 1371 1370 1368 1367 1365 1362 1361 1359 1357 1356 1352 1347 1335 1321 1320 1322 1318 1316 1314 1310 1309 1307 1304 1302 1300 1299 1299 1297 1295 1293 1292 1291 1290 1290 1289 1289 1288 1287 1287 1287 1286 1286 1287 1288 1289 1291 1292 1294 1296 1298 1300 1302 1304 1308 1311 1313 1315 1317 1319 1320 1322 1324 1327 1330 1333 1335 1335 1335
1378 1377 1375 1374 1372 1370 1369 1368 1365 1364 1362 1359 1358 1355 1354 1353 1348 1347 1341 1324 1317 1321 1317 1312 1312 1309 1306 1304 1301 1298 1297 1296 1295 1294 1292 1290 1289 1288 1287 1286 1285 1285 1284 1284 1283 1283 1283 1283 1283 1284 1285 1287 1289 1291 1293 1295 1296 1299 1301 1303 1306 1308 1309 1312 1315 1317 1318 1321 1325 1328 1332 1335 1335 1334
1375 1374 1372 1371 1369 1368 1366 1365 1363 1360 1358 1356 1354 1352 1349 1349 1345 1342 1340 1327 1316 1318 1318 1311 1308 1307 1304 1302 1300 1296 1293 1292 1292 1291 1289 1287 1286 1284 1283 1282 1281 1281 1281 1280 1280 1280 1280 1279 1279 1280 1281 1282 1285 1287 1290 1292 1293 1295 1297 1300 1302 1304 1305 1308 1312 1314 1316 1318 1322 1326 1330 1332 1334 1333
1373 1371 1370 1368 1367 1366 1363 1362 1359 1357 1356 1353 1350 1349 1345 1344 1343 1339 1336 1329 1316 1312 1315 1311 1306 1304 1302 1298 1297 1295 1290 1288 1288 1287 1286 1284 1283 1281 1279 1277 1277 1276 1276 1276 1276 1276 1276 1276 1276 1276 1277 1278 1280 1282 1285 1287 1289 1291 1293 1296 1298 1300 1302 1304 1308 1311 1313 1316 1319 1323 1327 1329 1332 1333
1370 1368 1367 1365 1364 1363 1361 1359 1357 1354 1352 1350 1346 1345 1342 1340 1339 1337 1333 1328 1318 1309 1308 1308 1303 1301 1300 1296 1294 1293 1289 1285 1284 1282 1281 1280 1279 1277 1275 1273 1272 1272 1272 1272 1272 1272 1272 1272 1272 1272 1273 1274 1276 1278 1280 1282 1284 1287 1289 1292 1294 1296 1298 1301 1304 1306 1309 1313 1316 1320 1324 1328 1331 1333
1367 1365 1364 1362 1361 1360 1358 1355 1354 1351 1349 1347 1343 1341 1339 1336 1334 1333 1330 1326 1319 1309 1303 1303 1301 1298 1297 1294 1291 1290 1287 1283 1281 1278 1276 1275 1274 1273 1271 1270 1269 1268 1268 1268 1268 1268 1268 1268 1268 1269 1269 1270 1271 1273 1275 1278 1280 1282 1285 1288 1290 1292 1294 1297 1299 1301 1304 1308 1312 1317 1322 1326 1328 1329
1363 1362 1361 1360 1358 1357 1355 1352 1351 1349 1346 1343 1341 1337 1335 1333 1330 1328 1326 1322 1317 1309 1301 1299 1299 1296 1293 1290 1288 1286 1283 1279 1277 1274 1272 1271 1270 1269 1268 1267 1266 1265 1265 1264 1264 1264 1264 1264 1264 1264 1265 1266 1267 1269 1271 1274 1276 1278 1281 1284 1286 1288 1291 1293 1294 1296 1299 1303 1309 1314 1319 1323 1324 1325
1360 1359 1358 1357 1356 1354 1351 1349 1347 1346 1343 1340 1338 1334 1331 1330 1327 1325 1322 1318 1315 1310 1303 1297 1295 1293 1290 1286 1283 1282 1280 1276 1273 1271 1269 1268 1267 1266 1265 1264 1262 1261 1260 1260 1260 1260 1259 1260 1260 1261 1261 1262 1263 1264 1266 1269 1272 1274 1277 1280 1283 1285 1287 1289 1290 1292 1295 1300 1305 1311 1316 1320 1321 1322
1357 1356 1355 1354 1353 1351 1348 1347 1345 1342 1340 1337 1334 1331 1329 1327 1324 1321 1318 1315 1312 1309 1304 1298 1292 1289 1286 1282 1279 1278 1278 1275 1271 1268 1266 1264 1264 1263 1261 1259 1259 1258 1257 1256 1256 1256 1255 1256 1256 1257 1257 1258 1259 1260 1262 1265 1267 1270 1273 1277 1280 1282 1284 1286 1287 1289 1293 1298 1302 1308 1314 1318 1320 1321
1354 1354 1353 1351 1350 1348 1346 1344 1342 1339 1336 1334 1331 1329 1326 1324 1322 1318 1315 1313 1309 1306 1302 1296 1291 1285 1282 1280 1276 1275 1275 1273 1270 1267 1264 1260 1260 1260 1258 1256 1255 1254 1254 1253 1252 1252 1252 1251 1252 1252 1252 1253 1254 1256 1258 1260 1263 1266 1269 1273 1276 1278 1281 1283 1286 1288 1292 1296 1300 1306 1311 1316 1319 1320
1352 1351 1350 1348 1347 1345 1343 1341 1339 1337 1334 1331 1329 1326 1325 1322 1319 1316 1312 1309 1306 1302 1298 1293 1288 1283 1279 1277 1274 1272 1271 1270 1268 1267 1264 1259 1257 1256 1254 1252 1251 1250 1249 1247 1247 1247 1247 1247 1247 1248 1248 1249 1250 1251 1253 1256 1259 1262 1266 1269 1272 1275 1278 1281 1284 1287 1290 1294 1299 1304 1309 1313 1316 1318
1349 1348 1347 1345 1344 1342 1341 1339 1337 1335 1333 1330 1327 1324 1322 1320 1317 1313 1310 1307 1303 1298 1294 1289 1285 1281 1276 1274 1272 1270 1268 1267 1265 1264 1262 1257 1253 1252 1249 1246 1246 1246 1245 1243 1242 1242 1243 1243 1243 1243 1244 1245 1246 1247 1249 1251 1254 1258 1263 1266 1269 1272 1275 1278 1282 1285 1289 1293 1297 1302 1306 1310 1313 1316
1346 1345 1344 1342 1341 1340 1338 1336 1335 1333 1330 1328 1325 1323 1320 1318 1315 1312 1308 1304 1299 1295 1291 1286 1283 1278 1273 1271 1270 1267 1265 1264 1262 1260 1259 1254 1251 1250 1246 1240 1240 1243 1243 1241 1238 1238 1239 1239 1239 1239 1240 1241 1242 1244 1244 1246 1249 1253 1258 1263 1266 1270 1273 1276 1280 1284 1287 1290 1294 1299 1303 1306 1310 1313
1343 1342 1341 1339 1338 1336 1335 1333 1332 1330 1328 1325 1323 1321 1318 1316 1314 1310 1305 1300 1296 1293 1288 1284 1281 1277 1271 1268 1267 1264 1261 1260 1258 1257 1256 1252 1249 1247 1243 1237 1235 1238 1240 1239 1236 1234 1235 1236 1235 1234 1235 1237 1238 1240 1240 1243 1246 1249 1253 1258 1263 1267 1271 1274 1278 1281 1285 1288 1292 1295 1299 1303 1306 1309
1340 1339 1337 1336 1335 1333 1331 1330 1328 1327 1325 1322 1320 1317 1315 1313 1311 1308 1304 1299 1294 1291 1286 1281 1278 1274 1269 1264 1262 1261 1259 1256 1254 1252 1251 1249 1246 1243 1241 1236 1232 1233 1237 1237 1232 1229 1230 1232 1232 1230 1231 1233 1235 1236 1237 1239 1242 1246 1250 1254 1259 1264 1268 1272 1275 1278 1282 1285 1288 1292 1295 1298 1302 1305
1337 1336 1334 1333 1332 1330 1329 1327 1325 1323 1321 1319 1316 1314 1312 1310 1308 1305 1302 1298 1293 1289 1284 1279 1274 1271 1268 1262 1258 1258 1257 1253 1249 1247 1244 1243 1242 1238 1236 1233 1229 1229 1233 1233 1230 1226 1225 1227 1228 1226 1226 1230 1232 1233 1235 1237 1239 1242 1246 1250 1255 1260 1264 1268 1272 1275 1278 1281 1285 1288 1291 1294 1298 1301
1334 1333 1332 1330 1329 1328 1326 1324 1323 1320 1318 1315 1313 1311 1309 1307 1304 1301 1298 1295 1290 1286 1282 1277 1271 1268 1265 1260 1255 1253 1253 1249 1245 1242 1239 1237 1237 1233 1230 1228 1226 1226 1228 1230 1228 1222 1219 1223 1224 1222 1223 1226 1228 1230 1233 1235 1237 1240 1244 1248 1252 1257 1261 1265 1269 1272 1274 1277 1280 1283 1286 1290 1294 1297
1332 1331 1329 1328 1326 1325 1323 1322 1320 1318 1316 1314 1311 1308 1306 1304 1301 1298 1295 1291 1286 1282 1279 1275 1270 1265 1262 1258 1253 1250 1248 1245 1241 1238 1236 1233 1232 1229 1226 1223 1222 1221 1223 1226 1225 1217 1214 1218 1220 1218 1220 1224 1225 1227 1231 1233 1236 1239 1241 1245 1249 1253 1258 1261 1265 1268 1270 1273 1276 1279 1282 1286 1289 1293
1329 1328 1327 1325 1323 1322 1321 1320 1318 1316 1315 1313 1309 1305 1303 1300 1297 1295 1292 1289 1285 1281 1277 1273 1268 1264 1260 1256 1252 1248 1245 1241 1237 1234 1231 1229 1228 1226 1222 1218 1216 1215 1217 1219 1220 1215 1211 1213 1216 1215 1218 1221 1222 1224 1228 1230 1234 1237 1239 1243 1247 1250 1254 1257 1261 1264 1266 1269 1272 1275 1278 1282 1285 1290
1327 1326 1324 1323 1321 1320 1319 1317 1316 1315 1313 1310 1306 1303 1300 1297 1294 1292 1290 1287 1283 1280 1275 1271 1266 1262 1257 1252 1248 1243 1240 1237 1233 1230 1226 1224 1224 1222 1218 1214 1212 1211 1211 1213 1215 1213 1208 1209 1212 1214 1216 1218 1219 1221 1224 1227 1231 1234 1237 1240 1244 1247 1251 1254 1257 1260 1262 1265 1268 1271 1275 1279 1283 1287
1324 1323 1322 1321 1319 1318 1316 1315 1314 1313 1311 1308 1304 1301 1298 1294 1291 1289 1286 1283 1280 1277 1273 1269 1264 1259 1254 1249 1244 1239 1236 1233 1230 1226 1222 1220 1220 1218 1215 1212 1209 1208 1207 1207 1210 1209 1205 1206 1211 1214 1215 1216 1217 1219 1222 1225 1228 1232 1235 1238 1241 1244 1247 1250 1253 1256 1258 1261 1264 1268 1272 1276 1280 1284
1322 1321 1320 1318 1317 1316 1314 1313 1312 1311 1309 1306 1302 1299 1296 1292 1289 1286 1283 1280 1277 1273 1270 1266 1261 1256 1251 1247 1242 1237 1233 1229 1226 1223 1220 1218 1217 1215 1212 1211 1209 1206 1204 1205 1208 1207 1204 1206 1209 1211 1212 1214 1215 1217 1220 1223 1226 1229 1232 1235 1238 1240 1243 1246 1249 1252 1255 1258 1261 1265 1269 1273 1277 1281
1319 1318 1317 1316 1315 1314 1313 1312 1310 1309 1307 1304 1301 1298 1295 1291 1287 1284 1282 1280 1275 1271 1267 1263 1258 1254 1250 1245 1240 1235 1231 1227 1224 1221 1219 1217 1215 1212 1210 1209 1208 1206 1203 1203 1206 1205 1204 1204 1206 1208 1210 1211 1213 1215 1219 1221 1224 1227 1230 1232 1235 1237 1240 1243 1245 1248 1251 1255 1258 1262 1266 1270 1274 1277
1317 1316 1315 1314 1314 1312 1311 1310 1308 1307 1305 1302 1300 1297 1294 1291 1288 1284 1282 1279 1275 1271 1266 1262 1258 1254 1249 1245 1240 1235 1230 1225 1222 1219 1217 1215 1213 1210 1208 1207 1206 1204 1201 1202 1203 1202 1201 1202 1203 1205 1207 1210 1212 1214 1217 1220 1223 1225 1227 1229 1232 1234 1237 1239 1241 1244 1248 1251 1255 1259 1263 1267 1270 1272
1315 1315 1314 1312 1312 1311 1309 1308 1306 1304 1303 1301 1299 1296 1294 1291 1288 1284 1281 1278 1274 1270 1266 1261 1257 1253 1248 1244 1239 1234 1229 1225 1221 1219 1216 1214 1211 1209 1207 1206 1205 1203 1200 1200 1200 1199 1199 1200 1200 1201 1204 1207 1210 1212 1215 1218 1220 1222 1225 1226 1228 1231 1234 1236 1239 1241 1244 1248 1252 1256 1260 1264 1266 1269
1314 1313 1312 1311 1310 1309 1308 1306 1304 1303 1301 1299 1297 1295 1293 1290 1287 1284 1280 1277 1273 1269 1265 1261 1257 1253 1248 1244 1239 1234 1229 1225 1221 1218 1215 1213 1211 1209 1207 1206 1204 1202 1200 1198 1198 1198 1198 1198 1198 1199 1201 1204 1208 1210 1213 1216 1218 1220 1222 1223 1225 1228 1231 1234 1236 1239 1242 1246 1249 1253 1257 1260 1263 1265
1312 1311 1310 1310 1309 1307 1306 1305 1303 1302 1300 1298 1296 1294 1291 1289 1286 1282 1279 1276 1272 1268 1264 1261 1257 1253 1249 1244 1239 1235 1230 1226 1223 1219 1216 1213 1211 1210 1208 1206 1203 1201 1199 1197 1196 1196 1197 1197 1197 1198 1201 1203 1206 1209 1211 1213 1216 1218 1220 1222 1224 1226 1228 1231 1234 1237 1240 1244 1247 1251 1254 1256 1259 1262
1311 1310 1309 1308 1308 1306 1305 1304 1302 1301 1299 1297 1295 1293 1290 1287 1284 1281 1278 1275 1271 1268 1264 1261 1257 1253 1250 1246 1241 1237 1233 1229 1225 1221 1217 1214 1212 1210 1208 1205 1202 1200 1198 1196 1195 1195 1195 1196 1196 1198 1200 1203 1205 1208 1209 1211 1214 1217 1219 1220 1222 1224 1227 1229 1232 1235 1238 1241 1244 1247 1250 1252 1255 1258
1310 1309 1308 1308 1307 1305 1304 1302 1301 1300 1298 1296 1294 1292 1289 1286 1283 1280 1277 1274 1271 1267 1264 1261 1257 1254 1251 1247 1243 1239 1235 1231 1227 1223 1219 1215 1212 1210 1207 1204 1202 1199 1198 1196 1194 1193 1194 1195 1196 1198 1200 1202 1205 1207 1208 1210 1213 1216 1218 1219 1221 1224 1226 1228 1230 1233 1236 1239 1241 1244 1247 1250 1253 1255
1308 1308 1307 1307 1306 1304 1302 1301 1300 1299 1298 1296 1294 1292 1289 1286 1283 1280 1277 1274 1271 1268 1265 1262 1259 1255 1252 1248 1244 1240 1237 1233 1229 1226 1222 1217 1213 1210 1207 1204 1201 1199 1198 1196 1194 1193 1194 1195 1196 1198 1200 1202 1204 1206 1208 1210 1212 1215 1217 1219 1220 1223 1225 1227 1229 1231 1234 1237 1239 1242 1245 1247 1250 1254
1307 1307 1307 1306 1305 1303 1302 1302 1301 1299 1298 1296 1294 1292 1289 1287 1284 1281 1279 1276 1273 1269 1266 1263 1260 1256 1253 1249 1245 1241 1238 1235 1231 1228 1224 1220 1216 1212 1207 1203 1201 1199 1198 1197 1196 1195 1195 1196 1197 1198 1200 1201 1203 1206 1207 1209 1211 1213 1215 1217 1219 1221 1224 1226 1228 1230 1233 1235 1237 1239 1242 1244 1247 1250
1306 1306 1306 1305 1304 1303 1302 1302 1301 1300 1298 1296 1294 1292 1290 1287 1285 1282 1279 1276 1273 1270 1267 1264 1260 1257 1253 1250 1246 1243 1240 1236 1233 1230 1226 1222 1219 1214 1210 1206 1204 1202 1200 1199 1198 1198 1197 1197 1198 1199 1200 1201 1203 1205 1206 1208 1210 1212 1214 1215 1217 1219 1221 1224 1226 1229 1231 1233 1235 1237 1239 1241 1244 1247
1305 1305 1305 1304 1303 1302 1302 1302 1300 1299 1298 1296 1294 1292 1290 1288 1286 1283 1280 1277 1274 1272 1268 1265 1262 1259 1255 1251 1248 1244 1241 1238 1235 1232 1228 1225 1221 1217 1213 1210 1209 1206 1204 1202 1201 1201 1200 1200 1200 1200 1200 1201 1203 1204 1206 1208 1209 1211 1213 1214 1215 1217 1219 1221 1224 1226 1229 1231 1233 1235 1237 1238 1240 1243
1304 1304 1303 1303 1302 1302 1302 1301 1300 1299 1297 1296 1294 1293 1291 1289 1286 1284 1281 1278 1276 1273 1270 1267 1264 1261 1257 1254 1250 1246 1243 1240 1237 1234 1231 1227 1224 1220 1217 1215 1213 1210 1208 1206 1205 1204 1204 1203 1202 1201 1201 1202 1203 1205 1206 1208 1209 1210 1212 1213 1214 1215 1217 1218 1221 1223 1226 1229 1231 1233 1235 1236 1238 1240
1302 1302 1302 1302 1302 1301 1301 1301 1300 1298 1297 1296 1295 1293 1291 1290 1287 1285 1283 1280 1278 1275 1272 1269 1266 1263 1260 1257 1253 1250 1247 1243 1240 1236 1233 1230 1227 1225 1222 1220 1218 1216 1213 1211 1210 1209 1208 1207 1205 1204 1204 1205 1205 1207 1209 1210 1210 1210 1211 1212 1213 1214 1215 1216 1218 1220 1222 1225 1227 1229 1231 1233 1235 1237
1301 1301 1301 1301 1301 1301 1301 1301 1300 1298 1297 1296 1295 1294 1292 1290 1289 1287 1285 1282 1280 1277 1274 1272 1269 1266 1263 1260 1257 1253 1250 1246 1243 1239 1236 1233 1231 1228 1225 1223 1222 1220 1218 1217 1216 1214 1213 1211 1209 1209 1209 1208 1209 1211 1212 1212 1211 1211 1211 1211 1212 1213 1214 1215 1217 1218 1220 1222 1223 1225 1227 1229 1232 1235
1300 1300 1300 1300 1301 1301 1300 1300 1300 1299 1298 1297 1296 1294 1293 1291 1290 1288 1286 1284 1282 1279 1277 1274 1271 1268 1266 1262 1259 1256 1253 1250 1247 1243 1240 1237 1234 1231 1229 1227 1226 1225 1224 1222 1221 1219 1217 1215 1214 1213 1213 1213 1213 1214 1214 1213 1213 1213 1212 1212 1212 1213 1214 1214 1215 1217 1218 1219 1221 1222 1224 1226 1228 1232
1298 1299 1299 1300 1300 1300 1300 1300 1300 1299 1298 1297 1296 1295 1294 1292 1291 1289 1287 1285 1283 1281 1279 1276 1274 1271 1268 1265 1262 1259 1256 1253 1250 1247 1244 1241 1239 1236 1234 1232 1230 1229 1227 1225 1224 1222 1220 1218 1218 1218 1218 1218 1218 1218 1217 1216 1215 1215 1214 1213 1214 1214 1214 1215 1215 1216 1217 1218 1219 1220 1222 1223 1225 1228
1297 1298 1298 1299 1299 1300 1299 1300 1300 1299 1298 1297 1296 1295 1294 1293 1291 1290 1288 1286 1285 1283 1281 1278 1276 1273 1271 1268 1265 1263 1260 1257 1254 1251 1249 1246 1244 1241 1239 1237 1235 1233 1230 1228 1226 1224 1222 1222 1222 1222 1222 1222 1222 1221 1220 1218 1218 1217 1216 1216 1215 1215 1215 1216 1216 1216 1216 1216 1217 1218 1219 1221 1223 1226
1296 1297 1297 1298 1298 1299 1299 1299 1299 1299 1298 1297 1297 1295 1294 1293 1292 1290 1289 1288 1286 1284 1282 1280 1278 1275 1273 1270 1268 1266 1263 1260 1258 1255 1253 1251 1248 1246 1244 1241 1239 1236 1234 1232 1230 1228 1227 1228 1228 1227 1227 1226 1224 1223 1221 1219 1219 1219 1218 1217 1217 1217 1217 1217 1216 1216 1216 1216 1216 1217 1218 1220 1222 1224
1295 1295 1296 1297 1297 1298 1298 1298 1299 1298 1298 1297 1297 1296 1295 1294 1292 1291 1290 1289 1287 1285 1284 1282 1279 1277 1275 1273 1271 1268 1266 1264 1261 1259 1257 1254 1252 1249 1247 1244 1242 1240 1238 1237 1235 1234 1234 1233 1232 1230 1229 1227 1225 1223 1221 1221 1221 1220 1220 1219 1219 1219 1218 1218 1218 1217 1216 1216 1216 1217 1218 1220 1221 1222
1293 1294 1295 1295 1296 1297 1297 1298 1298 1298 1297 1297 1297 1296 1295 1294 1293 1292 1291 1289 1288 1287 1285 1283 1281 1279 1277 1275 1273 1271 1269 1267 1265 1262 1260 1258 1255 1252 1250 1248 1246 1245 1244 1242 1241 1239 1238 1236 1233 1232 1230 1227 1226 1225 1224 1224 1224 1222 1221 1221 1220 1220 1220 1219 1219 1219 1218 1218 1218 1218 1218 1219 1220 1221
1292 1293 1294 1294 1295 1296 1296 1297 1297 1297 1297 1297 1296 1296 1296 1295 1294 1293 1292 1290 1289 1287 1286 1284 1283 1281 1279 1277 1275 1273 1271 1269 1267 1265 1263 1261 1259 1256 1254 1253 1251 1249 1247 1246 1244 1242 1240 1237 1235 1233 1231 1229 1228 1227 1227 1226 1225 1224 1223 1222 1221 1220 1220 1220 1220 1220 1219 1219 1219 1219 1219 1220 1220 1220
1290 1292 1293 1293 1294 1295 1295 1296 1296 1296 1296 1296 1296 1296 1296 1295 1294 1293 1292 1291 1290 1288 1287 1286 1284 1282 1280 1279 1277 1275 1273 1272 1270 1268 1266 1264 1262 1260 1258 1256 1254 1252 1249 1247 1245 1243 1242 1240 1238 1236 1234 1233 1232 1230 1229 1229 1228 1227 1225 1224 1222 1221 1220 1220 1220 1220 1220 1219 1219 1219 1219 1220 1220 1219
Wind_Speed
17 19 20 20 20 22 23 22 21 22 25 26 27 27 25 24 27 32 37 37 31 28 29 30 32 32 30 33 34 33 34 32 29 30 30 30 31 29 27 27 26 26 26 24 25 27 29 29 28 28 30 32 33 33 33 32 31 31 31 30 32 42 52 55 55 48 37 28 25 23 21 23 26 31
18 19 20 20 21 22 21 21 23 25 27 27 27 27 25 23 24 26 33 38 33 27 29 30 32 35 35 35 36 36 35 33 30 30 31 30 30 29 28 28 27 26 26 24 24 26 28 30 30 30 30 31 33 34 33 32 31 30 31 31 31 36 44 50 53 53 46 38 33 31 26 23 26 30
19 20 21 20 20 21 21 23 27 28 27 27 27 27 25 22 23 25 28 37 37 28 29 34 32 32 34 34 35 37 36 34 31 30 31 31 30 30 29 28 28 27 26 25 24 25 27 29 30 30 30 30 32 33 34 33 31 29 30 31 31 33 38 45 49 51 51 47 42 37 32 28 26 29
19 21 20 20 20 21 23 26 29 28 27 28 27 27 27 22 22 24 25 35 42 34 28 33 34 31 33 33 32 35 36 34 32 30 31 31 31 31 31 30 29 29 27 26 25 24 26 28 30 29 30 30 31 32 34 34 32 30 29 29 30 31 33 39 45 48 50 49 47 41 36 32 26 24
20 21 20 21 21 22 25 28 28 27 27 28 27 25 25 23 20 22 25 31 40 39 31 31 34 32 32 34 32 33 35 35 33 32 32 32 32 33 34 33 32 30 28 27 26 25 25 28 30 30 30 31 31 33 34 35 33 31 29 28 29 30 30 32 38 44 47 48 48 45 40 34 26 23
20 20 20 21 21 23 27 28 27 27 27 26 26 25 24 24 21 21 25 29 37 43 40 35 36 33 30 32 32 31 34 35 34 34 35 35 35 34 33 32 31 29 27 26 26 25 25 27 29 30 31 31 32 33 34 35 35 33 31 29 28 29 29 29 31 37 43 48 49 47 41 34 27 23
20 19 20 20 23 26 28 28 26 26 26 25 25 26 24 24 23 21 23 28 35 44 46 40 37 34 30 30 30 30 33 35 35 37 38 36 34 32 30 30 30 29 27 26 26 25 26 27 29 30 31 31 32 33 34 36 36 34 32 30 29 30 30 29 29 33 39 44 48 47 40 34 29 22
19 18 20 22 25 27 27 27 26 25 25 25 25 26 26 25 25 25 27 32 36 42 46 43 39 35 32 30 30 31 33 35 35 36 35 33 31 30 29 30 30 30 28 27 27 26 26 27 29 31 32 32 33 34 34 35 37 36 33 30 30 30 30 31 31 33 37 40 45 46 40 35 32 24
18 17 20 24 26 27 27 26 25 25 25 26 25 26 26 25 27 29 31 33 36 38 42 44 41 35 32 31 31 31 31 32 32 31 31 30 30 30 30 30 30 29 28 27 27 26 27 27 29 31 32 33 34 34 35 35 36 38 36 32 30 29 29 31 32 33 37 39 41 42 39 36 35 30
17 18 22 26 26 26 26 26 25 25 25 26 26 27 27 27 28 30 31 33 36 37 38 40 41 39 34 32 32 29 26 27 29 30 31 31 29 29 29 28 27 26 25 25 24 24 24 25 26 29 31 32 33 34 35 35 36 38 38 34 31 29 29 31 32 33 36 38 37 37 37 35 35 35
18 20 23 27 26 24 25 25 24 25 26 26 27 26 26 27 28 30 33 34 36 38 38 40 41 38 34 30 30 28 25 26 27 28 30 31 28 25 26 27 28 28 28 27 27 26 26 26 26 28 29 31 32 33 35 35 35 38 39 36 32 30 29 30 31 32 34 37 38 36 37 37 36 37
19 21 24 26 25 25 25 23 22 24 25 25 25 25 25 27 28 31 34 36 38 41 42 42 38 35 32 30 29 28 25 25 25 23 25 29 29 28 30 32 33 33 33 31 31 30 29 29 28 28 29 30 31 32 33 35 35 37 39 38 34 31 30 30 30 31 33 37 39 39 39 39 38 38
20 21 24 25 25 24 22 21 21 23 23 22 23 24 26 27 29 31 34 37 40 41 41 40 37 34 33 31 28 28 26 25 25 24 26 30 32 31 33 36 35 32 31 31 31 30 28 28 28 28 29 30 30 30 32 34 35 37 39 39 37 33 31 31 30 30 32 35 39 41 41 41 40 41
21 22 24 25 25 24 22 23 22 23 23 22 22 23 24 26 28 31 34 37 38 38 38 38 37 37 37 34 30 30 29 27 27 27 27 30 31 29 31 38 39 31 26 26 28 28 25 24 26 27 28 29 29 28 31 34 35 37 39 41 39 35 32 30 30 30 31 33 37 41 43 42 42 44
21 23 24 24 24 23 23 24 23 22 23 23 23 22 22 23 26 29 32 35 35 34 35 37 37 37 40 38 34 33 32 30 29 28 27 28 29 29 30 36 38 30 22 22 26 27 23 20 22 25 26 27 27 27 30 33 34 35 38 41 40 36 32 30 29 30 31 32 35 39 43 43 44 44
22 24 24 24 24 23 23 24 23 22 23 24 24 22 22 24 25 26 29 31 31 32 33 36 37 36 38 40 39 38 36 34 34 32 30 30 30 31 30 31 35 34 27 25 28 31 27 22 22 24 25 25 25 25 27 30 30 32 36 40 40 37 32 29 29 30 30 32 33 36 40 43 44 44
22 23 24 24 23 22 23 23 22 22 24 24 24 23 23 24 24 24 27 28 28 29 30 33 36 37 37 40 41 39 35 35 37 37 37 36 35 36 35 33 36 37 30 25 27 31 29 24 24 27 26 23 23 24 23 25 26 27 32 37 38 37 34 29 27 29 30 31 33 35 38 40 43 44
20 22 23 22 21 21 22 22 22 22 23 24 26 26 24 24 23 24 26 27 28 28 28 30 34 35 35 36 38 37 34 35 36 36 37 37 36 37 37 36 36 35 31 26 28 33 33 26 25 29 26 21 22 24 22 23 24 24 28 34 37 36 34 31 27 27 29 31 32 33 35 38 40 42
18 20 20 19 20 20 21 21 21 21 21 24 27 28 25 24 24 25 26 27 29 29 27 26 29 30 31 33 35 34 33 33 33 33 33 32 33 35 36 38 39 39 36 30 29 35 35 28 27 30 26 20 21 24 24 24 26 25 25 30 35 36 34 32 29 27 29 30 31 31 33 35 37 40
17 18 17 17 19 20 20 19 19 18 20 24 28 28 26 26 26 25 24 24 26 27 25 23 22 23 25 26 28 28 28 28 28 30 31 32 33 34 36 40 40 38 35 27 25 31 33 27 27 28 26 21 21 23 24 24 27 27 25 26 31 35 34 32 30 29 29 30 30 30 31 32 35 37
17 17 15 15 17 18 18 18 17 16 18 23 27 27 27 28 28 26 24 23 24 24 23 22 21 20 18 18 20 20 20 20 21 25 29 30 29 28 31 35 35 33 31 23 19 25 28 25 24 24 23 21 20 22 24 25 25 25 23 23 26 30 32 32 30 29 30 30 30 30 30 30 31 33
17 16 14 14 15 17 17 16 15 15 17 22 26 27 28 29 28 27 26 26 25 23 22 22 23 23 21 18 16 15 13 13 15 20 25 26 25 25 29 32 32 31 25 14 12 21 25 22 20 21 20 18 18 21 23 24 24 24 22 22 23 26 28 29 29 29 30 30 30 30 29 30 30 31
16 15 14 13 13 15 16 15 14 14 17 21 24 26 27 28 28 28 27 26 26 25 24 23 24 25 25 23 19 16 13 12 11 14 17 19 19 21 23 24 25 25 14 2 5 18 24 21 19 21 19 16 17 21 23 23 24 24 24 24 24 25 26 26 26 28 29 30 31 31 30 30 30 31
15 14 13 13 12 14 14 14 14 15 17 19 22 23 24 26 27 28 26 24 24 24 24 24 25 26 27 27 24 20 15 11 9 8 10 11 12 16 17 15 17 20 14 4 5 16 22 21 20 21 21 17 16 21 24 24 24 24 25 26 27 27 26 24 24 26 28 29 30 31 31 31 32 33
14 14 13 12 13 13 13 13 14 16 17 18 20 21 21 21 24 25 24 22 21 21 21 23 24 25 26 27 26 23 18 13 10 6 5 6 8 11 13 12 13 16 14 10 12 18 21 22 20 21 23 21 17 18 22 24 24 26 27 29 29 28 26 24 23 24 27 28 29 30 31 32 33 34
13 14 13 12 13 13 12 13 14 16 17 17 18 18 18 19 20 21 21 20 19 20 20 21 23 24 25 26 27 27 23 18 13 10 6 4 5 7 9 10 12 13 12 9 12 17 19 17 15 19 26 26 20 16 17 20 22 25 26 27 27 26 25 23 23 24 26 28 29 30 31 32 33 34
12 13 12 11 12 12 11 13 14 15 16 16 16 16 17 19 19 18 18 18 18 19 19 20 21 23 25 27 29 30 30 25 19 14 10 5 2 3 4 5 6 9 9 5 8 13 16 11 9 17 25 25 20 16 16 17 18 19 21 23 22 22 22 22 23 24 26 28 29 30 30 31 32 33
11 11 10 10 10 10 11 13 14 15 15 15 15 16 17 18 18 17 17 17 18 18 19 19 21 23 25 27 29 32 33 32 27 20 13 9 6 5 6 5 6 8 7 3 4 11 14 9 9 17 22 21 19 18 16 16 14 12 14 18 20 21 21 22 23 24 26 28 29 30 31 32 32 33
9 8 8 8 9 10 11 13 13 14 14 14 15 16 16 16 16 16 16 17 17 18 19 20 22 23 25 27 28 30 31 32 32 27 20 15 12 12 13 13 12 12 8 3 2 10 14 10 10 16 19 20 20 16 12 12 12 9 9 13 19 21 21 21 23 24 25 28 29 31 32 33 34 35
7 6 6 7 8 9 11 13 14 15 15 14 13 13 13 13 15 16 17 17 18 19 20 21 23 24 25 26 27 28 29 30 32 32 29 25 21 19 19 18 17 17 12 6 3 8 14 13 11 13 15 18 18 13 9 9 10 9 8 9 14 19 21 21 22 23 24 27 28 30 31 32 33 35
4 4 4 5 7 9 11 13 13 14 13 11 10 10 11 14 15 17 18 18 19 20 22 23 24 24 25 26 26 27 29 29 31 32 32 32 32 30 27 23 21 20 17 12 9 7 8 12 13 12 12 14 14 12 9 8 8 8 8 8 9 13 17 20 23 24 24 24 26 27 29 31 32 33
2 2 3 5 6 8 9 9 9 9 9 10 10 11 13 15 16 17 18 19 20 22 24 25 25 25 26 27 27 28 29 30 30 31 32 33 35 35 33 31 29 26 22 18 17 16 13 9 8 9 9 11 11 10 9 9 8 8 8 8 10 12 12 15 19 23 23 24 25 26 28 29 31 33
1 1 2 4 6 6 6 6 6 7 9 11 12 14 16 18 19 20 21 23 24 25 26 28 28 28 29 29 29 30 31 31 31 31 32 33 34 35 37 38 38 36 31 26 22 22 21 19 17 12 7 9 11 11 11 10 9 9 10 10 12 14 14 13 14 19 22 24 25 26 28 30 31 33
1 1 3 4 6 6 6 7 8 10 12 13 15 17 18 20 21 22 24 25 27 27 29 30 31 32 32 33 32 33 33 32 32 32 32 33 34 35 37 39 39 39 39 35 29 23 21 21 22 22 17 12 12 12 11 11 10 9 10 11 12 14 16 15 15 17 21 24 25 26 27 29 31 33
4 3 5 5 6 7 7 8 10 12 14 15 16 18 19 21 22 24 25 26 27 28 30 31 32 33 35 35 36 36 36 35 34 33 32 33 34 35 37 38 38 38 39 39 35 29 23 20 19 21 21 19 17 15 13 11 10 9 8 10 11 13 15 16 17 18 19 22 24 27 28 29 30 32
5 5 6 6 6 6 7 8 10 12 13 15 16 18 19 20 22 23 25 26 27 28 30 31 32 33 35 36 37 38 38 38 38 37 36 35 35 35 35 36 37 37 37 37 36 33 30 26 22 21 22 22 22 21 18 14 11 8 6 7 8 10 12 14 17 18 18 18 21 25 28 30 31 31
7 7 7 6 5 6 6 7 9 11 12 14 15 17 18 19 20 22 23 24 25 27 29 30 31 33 34 35 37 38 39 40 40 40 40 39 37 36 35 35 35 36 35 34 34 32 32 31 29 26 25 25 24 23 21 18 16 11 7 6 5 6 9 10 13 16 17 17 18 21 23 25 27 28
8 8 8 7 5 5 5 6 7 9 11 12 13 15 16 17 18 20 21 23 24 26 27 29 30 32 33 35 36 37 38 40 40 41 42 42 41 39 38 36 35 34 33 32 31 30 31 31 31 30 27 25 23 20 19 20 19 16 11 9 6 4 6 7 9 11 13 16 18 19 21 22 23 23
10 9 9 8 6 5 5 5 6 8 9 10 11 13 14 15 16 18 20 21 23 24 26 27 29 30 32 33 35 36 38 39 40 41 42 42 42 41 39 38 36 34 32 31 31 30 31 31 31 30 27 23 20 19 19 21 22 20 16 12 8 5 5 5 5 6 8 10 14 17 19 21 21 22
12 11 10 8 6 5 4 4 4 6 8 9 10 12 13 14 15 17 19 20 21 23 24 26 27 29 30 31 33 34 35 37 38 39 40 40 41 40 40 39 38 36 35 34 33 32 32 32 29 27 24 21 19 17 18 21 22 20 17 13 10 8 8 7 6 5 5 6 8 11 14 17 20 22
13 12 10 9 7 5 4 3 4 5 7 8 9 11 12 13 14 16 18 19 20 21 23 24 26 27 28 30 31 32 33 35 36 37 38 38 39 39 39 39 39 39 38 36 35 33 31 28 25 22 20 18 16 17 20 22 23 21 18 14 10 9 11 12 11 8 5 4 6 8 9 11 15 19
14 13 11 9 7 5 4 3 3 4 6 7 8 10 10 11 13 15 16 17 19 20 21 23 24 25 26 28 29 30 31 33 34 35 36 36 37 38 39 39 40 39 38 37 36 33 29 25 22 20 19 18 18 20 23 25 25 23 20 16 11 9 10 11 11 9 7 5 5 6 6 6 8 13
15 14 12 10 8 6 4 2 2 3 4 5 7 7 8 10 11 13 14 16 17 19 20 22 23 24 25 26 28 29 30 31 32 33 34 35 36 37 38 38 38 38 36 35 34 32 30 27 25 23 21 21 22 22 23 24 24 23 21 18 14 10 9 9 9 10 9 8 7 6 5 5 5 8
16 15 13 11 9 6 5 3 1 1 3 4 5 5 6 8 9 11 13 15 16 18 19 20 21 22 23 24 25 27 28 29 30 30 31 32 33 34 35 35 35 36 35 34 34 33 33 32 30 28 26 25 25 24 23 23 24 24 22 19 17 13 10 8 8 8 8 8 8 7 6 5 5 8
17 16 14 12 10 8 6 4 2 1 1 2 3 4 5 6 8 9 11 13 15 16 18 19 20 21 23 23 24 25 26 26 27 28 29 30 31 31 32 33 33 34 35 35 35 34 34 33 33 32 30 28 27 26 25 23 23 23 21 19 19 17 15 12 9 7 7 7 7 5 4 5 5 8
Wind_Direction
286 289 291 291 290 290 291 293 296 299 299 298 296 297 300 298 298 303 304 303 305 308 308 308 309 310 310 308 307 307 305 305 303 301 300 297 297 297 296 295 293 290 287 277 266 261 261 265 268 261 252 246 244 240 240 240 240 239 235 231 233 235 236 240 245 246 241 232 232 243 251 252 250 234
286 290 290 289 288 290 294 295 297 299 297 295 296 297 298 294 289 292 296 296 298 304 305 305 306 308 308 308 307 307 306 304 302 300 299 297 296 297 294 293 292 290 286 279 268 261 260 262 266 265 258 251 245 240 239 240 240 239 237 235 234 235 237 240 244 247 245 240 243 252 260 263 262 248
285 289 291 288 287 291 294 295 296 298 297 297 298 298 296 291 285 286 289 290 292 298 301 301 302 302 304 305 305 305 305 304 302 300 299 298 296 295 294 292 291 290 287 281 272 262 259 260 263 265 262 255 248 241 238 240 241 239 237 236 235 236 238 240 243 247 246 244 247 252 257 264 268 256
285 291 290 286 289 292 293 295 298 300 300 300 300 299 296 289 284 287 286 286 290 295 297 298 300 300 300 301 301 302 303 302 301 299 297 297 296 294 293 291 289 288 286 282 274 264 258 257 259 262 262 256 250 243 237 238 240 239 237 235 235 236 239 240 241 245 247 246 246 250 255 260 271 270
292 296 290 287 292 294 295 299 301 301 304 305 305 304 301 293 287 288 288 287 291 296 298 297 299 300 299 298 298 298 299 300 299 298 296 294 293 292 291 289 287 286 283 280 275 266 258 255 256 259 260 257 252 244 238 236 238 239 236 234 233 234 238 241 241 243 246 247 245 249 255 256 266 281
302 298 290 290 294 294 297 301 302 304 307 309 310 310 305 297 293 289 288 290 293 298 302 302 299 300 298 296 298 298 297 298 298 296 295 293 293 293 292 291 290 287 284 280 276 268 260 255 255 257 259 258 254 248 241 236 236 238 236 233 231 231 234 237 239 242 244 246 246 247 254 253 257 279
303 296 290 291 292 295 300 303 304 306 309 312 313 312 308 306 305 300 296 297 297 298 302 304 300 300 301 297 297 298 295 295 295 294 294 295 295 295 293 292 291 289 286 283 279 273 264 256 253 255 257 258 255 250 244 237 235 237 236 234 231 229 231 232 234 238 240 245 246 246 252 251 252 271
297 292 290 290 293 299 303 304 306 309 312 314 314 313 314 317 316 312 309 308 303 297 298 302 300 298 299 297 296 297 295 294 294 294 295 296 296 294 292 290 290 288 285 282 279 275 268 260 254 253 254 256 254 251 246 238 234 235 234 233 233 230 230 230 230 235 237 241 245 245 248 251 251 262
294 291 291 291 296 303 304 305 309 312 314 316 317 317 318 320 320 318 314 309 304 297 296 300 302 298 297 296 295 295 294 293 295 295 294 294 293 293 291 289 289 289 287 283 280 275 270 263 257 255 254 256 255 252 248 241 234 233 232 231 232 231 230 230 230 233 235 237 242 243 244 247 248 251
294 292 290 291 298 305 306 307 310 313 316 317 318 319 319 320 319 316 311 306 305 302 298 299 301 299 298 297 296 295 294 292 293 294 293 293 293 293 294 293 292 292 290 287 283 279 275 269 262 258 255 255 256 253 250 244 236 231 231 230 229 229 229 230 230 230 231 232 235 237 237 240 243 242
293 289 287 291 301 307 306 308 312 315 316 315 315 316 316 316 313 307 308 311 309 305 302 301 301 300 299 297 295 295 296 292 289 291 293 294 294 294 292 291 290 289 285 281 276 273 270 267 261 256 253 252 253 252 250 246 239 231 228 228 227 226 226 228 229 228 228 227 228 230 230 232 236 237
289 287 287 293 301 306 306 307 310 312 312 308 307 311 312 311 310 309 312 314 310 306 305 305 303 300 298 297 295 295 296 293 290 290 291 292 293 294 291 289 290 290 289 285 280 274 269 266 261 256 253 250 248 249 248 245 240 233 227 227 226 224 224 225 227 226 225 225 224 223 224 226 230 234
288 286 288 293 299 304 304 302 304 308 311 308 305 309 313 312 312 314 313 310 308 308 309 308 305 301 298 296 295 295 294 291 290 291 290 289 290 292 292 291 291 291 291 289 286 280 275 271 266 260 255 251 247 247 246 243 240 233 226 225 225 224 222 223 225 223 223 224 224 221 221 222 225 230
288 285 287 293 299 303 299 299 305 309 312 311 309 312 316 314 311 311 310 310 311 312 310 308 306 302 299 296 295 292 290 289 290 290 290 289 290 293 292 292 293 292 291 290 288 285 280 275 270 263 256 251 248 246 245 242 238 232 225 222 224 224 223 223 225 224 222 222 223 223 222 222 223 226
287 284 288 294 299 300 300 303 308 309 310 311 310 314 321 320 315 313 313 313 314 312 308 306 304 301 299 299 298 294 292 292 290 288 288 286 288 289 289 290 292 292 292 291 288 284 277 270 268 264 256 249 246 244 242 240 237 232 226 222 222 223 224 225 225 225 224 222 222 223 224 224 224 225
286 285 291 296 298 300 302 306 309 311 310 308 308 318 328 325 322 322 320 317 315 312 308 305 303 301 300 300 299 297 296 296 294 291 288 286 285 285 283 282 284 288 292 290 286 282 272 260 257 256 250 247 246 243 241 240 237 233 227 223 222 222 223 224 223 223 224 223 221 222 224 225 225 226
285 287 294 296 298 302 304 308 313 312 309 309 314 323 329 326 327 330 325 321 319 317 313 307 305 303 301 299 299 300 301 299 298 296 293 291 289 285 281 278 281 287 289 283 283 283 272 257 249 245 238 238 244 244 244 241 236 232 226 222 220 220 220 221 221 221 222 223 221 220 222 225 226 227
285 290 295 295 299 305 306 311 314 312 314 320 319 322 326 328 332 334 328 324 326 326 318 308 303 303 303 302 303 307 308 303 299 297 295 294 291 287 283 282 282 282 279 275 277 277 267 255 250 242 229 226 237 240 240 235 230 229 226 220 218 217 218 219 221 222 221 220 220 220 221 223 225 227
292 294 297 297 301 306 310 314 314 315 324 323 314 316 326 331 335 337 333 330 331 329 321 312 306 306 306 306 307 308 307 301 296 293 291 288 286 283 281 280 278 277 276 272 269 270 266 257 251 241 224 222 235 233 231 228 224 224 224 219 216 215 216 218 222 225 222 218 217 218 219 221 222 225
299 299 299 299 303 307 311 313 314 320 325 316 310 319 329 332 337 339 336 334 332 326 323 321 316 312 308 304 304 303 299 294 290 288 283 279 278 277 277 278 277 278 280 273 260 265 266 255 248 240 224 224 236 229 223 221 219 221 222 217 215 215 216 219 222 225 222 218 215 215 216 219 220 221
303 301 301 303 304 307 311 313 317 323 322 313 314 325 331 332 336 338 338 339 334 326 326 330 333 334 328 315 307 303 294 289 287 284 279 275 276 275 274 276 277 279 281 275 260 262 259 246 243 242 228 224 231 225 218 216 215 218 219 217 215 214 217 220 223 223 221 217 215 213 214 216 217 217
304 304 305 307 306 308 313 318 321 325 322 317 321 329 331 330 333 338 341 342 336 329 330 335 342 351 354 346 332 322 312 299 287 279 276 275 274 272 270 273 278 283 286 282 261 257 252 243 240 240 232 227 226 220 214 211 212 213 214 216 217 215 216 219 221 220 218 216 215 213 213 215 215 214
305 306 308 311 310 311 316 319 323 327 324 322 325 329 328 328 333 339 341 338 334 332 336 341 348 356 2 2 356 348 340 325 301 284 279 277 274 274 274 274 279 283 286 297 250 255 253 248 236 228 229 229 219 212 210 211 211 210 211 217 220 219 219 220 220 218 216 215 215 214 214 216 216 214
307 308 310 313 314 312 315 319 325 332 330 327 327 329 329 330 333 334 335 334 333 336 341 347 352 357 4 9 8 3 357 348 330 305 288 283 282 285 289 288 281 276 272 263 281 268 257 246 232 222 221 216 206 205 208 211 212 211 214 220 223 223 223 223 220 217 214 215 216 216 216 217 217 217
310 310 311 315 316 314 316 324 331 337 336 333 330 331 332 331 328 327 330 332 335 339 344 350 354 357 3 11 15 15 12 9 6 353 314 295 290 291 300 304 293 287 287 285 281 270 252 239 233 228 219 209 203 204 206 209 214 217 221 226 227 226 227 225 221 215 211 212 215 216 217 217 218 219
310 309 311 317 318 315 322 333 340 342 340 337 334 332 331 327 325 328 333 335 339 346 351 355 357 360 4 9 16 22 23 24 24 20 5 327 287 287 305 308 301 305 310 291 265 252 238 231 230 219 207 201 201 203 204 210 218 223 228 231 229 226 226 224 221 215 210 210 212 215 216 217 219 221
306 308 315 320 319 322 333 343 347 346 342 338 334 332 329 326 327 332 336 339 345 352 358 3 4 6 10 12 17 23 26 28 30 29 25 17 315 280 308 316 325 335 329 288 239 228 226 225 208 193 190 191 198 206 208 212 219 225 230 229 225 221 218 216 217 216 213 212 213 214 216 216 218 220
305 312 320 325 326 334 345 350 350 346 340 334 331 330 328 326 329 337 343 347 353 357 3 10 13 15 18 19 20 23 26 28 32 38 44 51 66 77 66 55 42 25 2 313 215 210 218 217 184 185 187 187 195 205 206 206 213 225 227 219 214 213 213 213 215 216 215 216 215 214 215 215 216 217
306 316 328 333 337 342 347 349 348 343 336 332 331 330 328 330 339 349 356 358 0 4 11 17 19 22 25 25 25 26 27 29 33 40 52 67 79 79 69 64 62 53 41 29 184 204 213 205 174 179 185 184 190 197 197 199 210 226 229 214 206 206 210 212 215 216 216 216 217 216 216 216 216 216
304 323 339 339 339 345 348 348 345 341 337 336 336 336 340 349 359 7 11 12 11 14 19 23 24 25 28 30 31 31 32 33 33 36 45 58 68 68 66 68 71 67 65 71 123 193 207 203 182 175 178 180 182 181 180 196 212 225 238 228 205 200 204 208 212 215 217 217 218 218 218 218 218 218
302 334 345 340 344 354 353 347 343 340 342 350 357 360 8 18 22 23 24 25 23 24 27 29 29 29 31 34 35 36 36 36 36 36 39 46 52 54 59 66 71 72 76 84 93 123 177 199 201 195 187 182 180 175 172 184 197 209 232 241 220 206 206 206 209 212 215 218 219 218 217 217 218 219
303 341 347 350 4 10 2 352 348 350 3 20 27 30 35 37 38 38 38 37 36 34 34 34 33 34 35 37 38 40 39 38 38 38 38 41 45 49 53 57 60 64 72 83 91 95 102 128 167 188 197 192 185 181 179 177 179 189 206 218 219 216 213 211 213 214 214 216 218 220 220 219 220 222
286 345 18 24 31 34 27 22 28 34 42 46 45 45 47 47 45 45 44 44 43 41 39 38 37 37 38 38 40 41 42 42 41 40 39 39 41 46 50 51 51 54 57 64 76 86 90 94 98 104 137 177 181 183 187 183 177 183 192 197 205 212 214 213 213 214 214 215 217 220 223 224 225 226
210 155 90 71 61 60 56 51 55 57 56 55 52 50 49 48 47 47 46 46 45 44 43 42 40 39 40 41 41 41 41 42 44 44 43 41 40 42 46 48 48 49 51 54 59 70 84 93 96 96 102 122 144 152 160 161 158 168 187 194 199 208 215 218 215 210 212 216 218 220 223 226 228 229
185 150 113 95 79 72 66 60 60 60 57 56 54 51 48 46 46 46 45 45 45 44 45 44 43 42 42 42 42 42 42 42 43 45 46 45 44 43 45 45 45 45 48 50 51 56 68 81 92 97 98 101 107 107 107 122 134 144 168 185 193 203 212 219 222 219 217 217 217 217 221 226 230 231
177 149 123 109 94 82 74 66 62 59 56 53 52 50 48 46 44 43 44 44 43 43 43 43 43 43 44 44 43 43 42 42 43 44 45 45 46 46 47 47 46 45 45 47 47 50 57 64 73 83 85 84 82 75 68 74 91 106 136 164 182 199 208 215 222 226 225 222 219 219 222 227 232 233
174 153 135 125 112 97 83 71 63 59 54 51 48 47 46 45 44 43 43 42 42 42 43 43 42 42 42 43 44 43 43 43 43 43 44 44 44 45 46 47 46 46 45 46 46 47 49 54 59 65 67 68 66 60 58 65 70 75 97 123 141 183 203 213 220 223 225 226 225 225 227 230 234 237
176 162 148 141 131 113 92 75 65 59 54 50 48 46 45 44 44 43 42 41 40 41 41 42 42 42 41 41 41 42 42 43 43 43 44 44 43 43 44 45 46 46 46 46 46 47 47 49 51 53 53 54 51 47 49 58 60 60 70 81 86 129 177 195 206 212 218 224 228 231 233 235 238 240
181 172 160 152 146 128 104 83 68 61 55 51 49 47 45 44 44 42 41 40 39 38 40 40 40 41 41 41 41 41 41 41 41 42 43 43 43 43 43 43 44 44 44 44 44 44 45 45 46 47 48 48 46 42 44 49 50 52 56 58 60 87 134 157 171 184 199 213 224 232 234 236 239 241
185 179 170 161 156 144 118 92 70 62 56 48 47 48 44 42 43 42 41 40 38 37 38 39 38 39 39 39 40 40 40 41 41 41 42 43 43 43 44 44 44 44 43 43 42 41 42 42 41 42 44 44 46 49 52 52 53 56 59 57 54 69 89 97 108 132 163 193 212 224 231 235 238 239
188 184 178 168 165 159 131 101 70 60 54 46 45 47 44 42 43 42 41 40 38 37 37 37 37 37 37 38 38 38 38 39 39 39 40 41 42 42 42 43 44 44 44 44 43 43 43 43 42 42 42 42 44 49 52 50 48 51 59 64 65 75 84 85 89 101 122 162 194 204 216 231 238 239
191 188 184 176 173 170 147 113 69 56 51 43 43 44 42 43 45 43 42 41 39 37 37 37 36 36 35 36 37 36 36 37 37 37 37 38 39 39 40 41 42 42 42 43 44 44 44 45 44 42 41 40 40 43 45 43 37 37 46 59 74 95 100 89 82 85 94 117 157 175 182 203 230 239
194 191 188 181 178 176 162 137 81 54 47 42 42 43 40 43 46 45 43 42 40 38 37 36 36 35 35 35 35 35 34 35 35 35 35 35 36 37 37 38 39 40 41 43 44 44 44 44 44 42 40 39 40 41 42 40 36 32 35 43 59 87 108 104 93 87 86 98 117 134 154 183 220 238
197 194 191 186 184 183 177 165 137 69 48 40 42 42 39 42 45 45 44 43 41 39 37 35 34 34 34 34 34 33 33 33 33 33 33 33 34 35 36 36 36 37 37 38 40 41 42 42 42 42 42 41 41 40 39 37 35 32 29 32 42 58 78 97 107 106 101 105 116 130 147 173 215 236
199 197 195 191 189 190 188 184 182 157 71 46 44 41 38 39 42 43 44 44 42 40 37 35 33 33 32 32 32 32 31 30 31 31 31 31 32 32 33 34 34 34 34 34 34 36 38 39 40 40 41 42 43 42 40 37 35 32 29 29 33 40 49 57 66 80 89 91 96 120 160 182 211 235